GFSNE_250_spd_189.txt.gz
Wind_Speed
96 92 88 86 84 82 79 73 67 63 58 55 52 49 49 49 51 52 52 54 57 63 67 72 80 88 94 101 109 107 105 102 99 100 98 97 94 86
85 82 80 78 77 73 67 61 60 56 51 48 44 40 40 42 44 45 46 48 52 56 62 67 73 81 88 95 103 109 106 106 106 105 104 100 99 93
73 72 72 70 67 62 57 54 51 49 44 40 40 38 36 37 38 40 40 43 47 50 56 62 68 72 80 88 96 103 106 107 109 108 108 106 106 100
65 65 63 61 57 54 50 47 43 41 40 37 34 33 33 33 33 36 37 37 41 44 49 53 60 66 72 78 87 95 100 106 111 111 111 110 109 107
60 58 54 51 50 46 42 38 35 33 34 34 31 28 28 29 30 31 32 35 37 39 42 48 52 57 64 70 77 85 92 98 106 114 114 114 112 111
53 50 47 46 43 39 36 31 27 25 23 24 25 25 23 22 24 26 27 29 32 34 38 42 47 52 58 65 71 77 83 89 98 108 114 116 115 115
45 43 43 41 38 33 28 23 21 20 17 16 15 15 16 17 18 19 22 22 27 29 31 36 40 46 51 59 65 72 77 85 97 102 110 115 117 116
41 40 38 36 33 27 20 17 14 13 13 13 15 14 14 12 13 15 18 19 22 25 26 29 33 39 44 50 57 62 70 77 86 99 105 113 119 118
36 35 34 32 27 20 14 12 10 9 10 11 12 14 15 16 17 17 17 17 17 20 23 26 29 33 37 43 49 56 63 70 78 86 97 105 114 119
31 30 30 26 20 15 14 13 11 11 11 12 13 15 15 15 17 17 19 22 21 23 23 24 26 30 34 39 43 48 54 61 69 77 84 93 104 110
27 25 23 21 17 16 15 15 15 15 15 16 17 19 20 21 20 22 24 23 25 25 28 29 29 31 34 36 41 45 50 55 61 68 76 84 90 100
20 20 19 18 18 18 18 19 20 20 21 24 25 27 27 26 28 28 29 31 31 31 31 33 36 36 36 39 41 46 47 53 59 63 69 75 83 90
19 19 19 20 21 21 23 25 26 27 29 32 34 35 36 36 36 36 38 38 39 39 40 39 40 41 42 44 44 46 50 52 57 60 66 71 76 82
20 21 22 22 24 26 28 30 32 34 35 37 39 43 44 45 45 45 47 47 48 48 47 47 46 47 48 49 49 50 52 53 58 62 66 69 72 79
23 26 28 29 30 31 34 36 39 41 43 45 45 47 48 50 51 51 52 52 52 53 54 55 53 52 53 54 56 56 57 59 61 63 68 72 76 80
32 35 36 36 38 40 42 44 47 48 47 48 49 51 53 55 56 54 56 57 58 58 57 57 57 58 62 60 61 63 64 64 66 67 70 74 79 82
40 43 44 45 46 47 48 50 52 51 50 52 53 55 55 55 57 59 60 60 60 60 61 61 62 64 66 68 69 68 68 70 70 72 74 77 80 81
44 46 47 48 49 50 52 53 54 53 53 55 56 56 56 56 57 57 58 58 59 61 63 65 67 69 72 74 73 74 75 75 75 76 77 79 82 83
51 51 52 53 54 56 57 59 59 59 59 60 61 59 59 60 61 61 62 63 64 66 69 70 72 73 76 78 81 81 77 76 75 77 77 78 80 82
57 56 57 57 59 62 64 66 66 66 66 66 66 66 66 67 68 69 70 70 72 73 75 77 77 78 78 79 80 84 82 77 74 74 75 76 76 76
62 61 61 63 65 66 68 69 70 71 72 72 72 72 73 74 75 76 77 78 77 78 81 81 83 82 82 81 81 80 80 77 75 73 72 72 73 72
67 67 66 65 67 69 70 71 72 73 74 75 76 77 79 80 81 82 83 83 84 85 85 85 84 84 83 78 75 75 76 77 74 71 68 66 65 67
71 70 71 72 74 75 76 75 76 77 78 78 79 81 82 83 85 86 86 87 87 86 86 85 85 81 78 77 75 72 72 71 69 69 69 64 62 62

GFSNE_250_spd_195.txt.gz
Wind_Speed
89 88 88 88 89 87 87 88 91 91 87 83 82 81 76 72 71 71 69 66 64 62 61 60 61 61 62 64 66 71 77 82 93 98 98 97 96 96
75 75 74 74 75 75 74 73 72 71 70 70 70 68 64 63 64 62 57 54 53 52 51 51 51 51 52 53 56 63 68 71 80 90 98 99 97 98
63 62 62 62 63 62 60 60 59 59 60 62 61 60 57 54 51 50 47 46 45 44 43 44 44 44 46 49 51 54 58 62 70 79 90 98 100 98
53 51 51 51 51 50 51 52 54 56 57 56 54 52 51 46 42 41 39 37 37 35 36 36 38 38 39 40 42 45 50 54 61 70 81 93 99 101
45 43 43 45 46 47 49 51 53 54 52 51 48 46 42 39 35 34 31 29 30 29 28 29 32 32 33 34 36 38 43 48 55 63 72 83 95 101
42 41 43 45 46 48 50 51 50 48 47 45 42 39 35 30 28 28 27 25 24 24 21 23 25 27 28 29 31 34 38 42 49 57 65 74 86 97
40 42 43 45 48 49 48 46 45 44 43 41 37 32 28 24 22 22 19 18 17 17 16 18 18 20 22 24 27 29 33 37 43 50 58 67 76 86
41 41 44 47 46 45 43 43 43 42 40 37 32 28 23 20 18 15 13 11 9 10 9 12 13 14 17 18 22 24 27 31 36 44 52 60 68 78
40 43 43 42 42 42 41 41 41 39 37 33 30 27 24 22 18 14 13 11 9 10 11 10 11 12 11 14 17 19 22 26 29 34 42 50 60 66
41 40 39 39 40 40 40 40 39 38 36 32 30 28 25 23 20 18 16 14 12 13 16 17 17 17 16 15 15 16 18 22 25 29 33 41 49 57
39 37 36 36 36 37 37 38 36 35 33 32 31 30 27 24 22 21 21 21 21 21 21 23 24 24 24 24 23 23 22 21 24 26 29 34 40 47
36 35 34 33 32 31 32 32 34 33 31 32 31 30 29 28 27 26 27 29 29 30 30 30 31 30 30 31 32 31 31 30 30 30 31 34 38 41
34 34 33 30 27 25 26 27 29 31 32 32 31 32 32 33 33 33 36 37 37 38 38 39 38 38 37 36 38 38 39 39 38 38 39 39 41 43
32 32 31 26 24 24 25 27 28 30 31 32 33 34 36 37 39 41 43 44 45 47 46 45 45 44 43 43 43 43 43 44 46 47 48 48 49 51
33 31 32 27 25 26 27 28 30 32 34 35 37 39 41 42 43 45 46 48 51 53 54 52 50 49 50 49 48 47 48 48 49 51 53 53 54 56
35 33 36 36 33 31 32 35 36 37 38 40 43 45 47 50 51 52 53 54 54 54 56 57 55 53 53 54 54 53 53 53 53 54 55 57 58 60
38 39 40 40 39 39 39 39 40 43 46 48 51 53 54 56 58 58 57 57 58 59 60 60 61 60 60 61 61 61 61 62 62 62 62 64 65 66
42 44 44 44 44 45 45 45 48 51 53 56 58 57 56 58 61 61 61 62 65 66 65 65 66 67 69 70 70 70 70 71 72 72 72 73 77 76
50 49 49 49 48 49 49 51 53 56 58 62 62 61 63 65 66 67 68 70 72 73 73 73 74 75 76 76 78 76 77 80 79 81 81 81 82 85
54 55 56 55 56 57 59 61 63 65 67 68 69 70 70 71 73 75 74 76 78 79 80 78 78 78 80 81 82 85 81 80 81 81 83 84 85 87
61 63 63 63 63 64 67 69 72 73 74 76 78 78 78 78 80 82 82 83 85 85 85 84 82 82 82 82 82 83 85 84 82 80 82 84 86 88
64 67 68 70 71 73 74 76 79 81 82 84 86 86 86 86 87 87 87 87 87 86 86 85 83 81 80 79 80 81 82 84 84 85 86 87 87 88
58 61 63 66 68 69 70 71 74 76 78 79 81 83 84 86 86 87 87 86 85 84 83 82 82 82 82 81 81 82 83 85 85 86 88 89 87 84

GFSNE_250_spd_198.txt.gz
Wind_Speed
90 93 90 86 86 84 82 80 77 75 76 76 78 78 78 80 80 78 76 74 71 69 69 69 71 71 71 70 70 72 74 76 79 83 85 90 92 95
72 74 72 70 69 68 67 65 63 63 63 63 63 65 65 67 68 66 63 62 62 62 62 62 62 61 60 59 58 60 62 65 68 72 76 82 89 94
63 62 60 59 59 58 56 54 52 52 53 54 55 56 58 59 59 57 56 57 54 53 53 53 53 52 51 50 49 51 54 57 59 64 70 75 79 87
60 57 56 53 51 49 48 46 46 47 49 49 52 53 54 52 53 51 49 49 47 44 43 45 45 43 44 44 45 46 47 49 54 57 62 67 71 75
58 55 50 48 46 44 44 44 44 45 47 49 50 51 51 49 44 42 42 42 41 37 36 35 36 35 34 35 38 40 42 44 46 49 53 57 62 69
52 48 46 44 42 43 43 44 46 47 48 48 48 47 46 42 39 38 37 36 33 30 28 28 28 26 27 28 30 33 36 37 39 42 45 49 54 60
47 43 42 42 42 43 45 47 48 48 47 46 44 43 40 37 37 36 31 28 25 22 21 20 21 20 21 22 23 26 28 30 32 34 39 43 47 53
42 39 40 40 42 45 46 48 47 45 44 42 41 40 37 35 34 32 28 24 21 19 17 15 15 15 15 17 18 19 21 24 25 28 33 38 44 48
38 39 39 42 44 46 46 44 42 42 42 42 40 38 34 34 33 29 26 22 21 20 17 15 13 13 13 13 13 15 16 18 21 23 27 32 37 44
38 38 41 44 45 43 40 40 41 41 42 41 39 37 33 34 33 30 29 26 24 22 19 17 16 16 16 15 15 16 16 17 19 21 24 27 32 38
37 39 42 42 41 38 38 40 39 39 39 38 38 35 33 35 34 33 32 29 26 24 23 23 23 23 23 23 23 22 20 20 22 23 25 27 30 34
38 40 40 39 37 37 38 38 37 36 35 35 35 34 35 35 36 36 35 34 32 30 28 28 29 29 30 32 33 33 32 29 28 29 30 31 32 34
41 41 38 38 37 37 37 35 35 32 30 31 32 33 35 36 36 38 38 38 37 36 35 35 36 37 37 37 39 39 39 39 38 37 37 38 39 40
42 39 39 38 37 37 35 34 32 29 25 26 28 32 35 37 39 40 41 42 42 42 42 44 43 44 46 46 46 45 45 45 46 45 45 45 45 46
43 39 41 39 38 36 34 33 31 27 27 28 29 33 37 39 41 42 43 45 46 47 47 47 48 51 53 56 53 51 49 50 52 52 52 52 52 53
41 41 42 40 38 36 35 33 32 32 32 33 35 38 41 43 45 46 49 50 50 52 53 54 55 58 59 59 61 58 56 54 56 57 57 57 58 59
41 41 41 41 41 39 38 38 38 39 39 40 42 44 47 49 51 53 54 54 56 59 61 62 63 63 63 63 64 63 62 62 63 64 65 66 66 65
43 43 43 43 44 43 43 43 44 45 46 46 49 52 54 56 58 60 61 63 65 65 65 65 67 68 69 70 69 69 70 71 71 71 72 74 76 74
43 44 45 47 48 48 49 49 50 51 51 54 57 59 61 63 65 66 66 67 69 70 72 74 74 74 74 78 78 76 77 77 77 79 78 79 80 82
42 44 48 51 53 54 55 56 57 59 60 62 63 65 66 67 69 71 73 75 77 79 81 82 82 81 82 83 84 86 82 83 84 83 83 83 82 83
45 47 49 52 55 58 60 62 63 65 66 68 70 72 74 74 76 80 82 83 84 87 88 88 86 85 86 86 87 90 90 86 84 84 84 82 83 83
49 49 50 53 57 61 65 68 70 72 74 75 78 80 80 80 82 82 83 83 83 83 84 85 83 81 83 84 85 85 86 86 84 82 80 80 80 80
49 51 53 55 57 58 60 62 64 67 70 73 74 76 77 78 79 79 81 82 82 83 84 84 83 82 81 80 80 82 82 83 83 84 85 83 82 81

GFSNE_250_spd_201.txt.gz
Wind_Speed
115 120 124 125 127 120 90 85 71 68 65 61 61 61 63 64 66 69 70 72 75 76 78 80 81 80 78 77 75 74 74 74 74 76 78 79 83 87
123 125 132 127 124 99 72 62 59 59 56 52 52 53 54 55 56 57 58 59 61 63 64 64 64 63 61 61 61 61 62 64 66 69 71 73 76 79
129 131 130 129 101 80 65 54 53 52 51 50 48 47 47 48 50 51 52 53 54 54 55 54 53 54 54 53 52 53 54 55 57 60 64 67 69 73
134 131 120 94 78 72 57 51 48 47 46 45 44 44 44 46 47 49 49 49 49 48 48 48 47 45 45 45 45 46 46 47 48 52 55 59 62 66
136 113 72 75 74 66 52 47 45 46 44 43 43 43 44 46 47 47 47 46 45 44 41 40 38 38 36 37 39 40 41 42 43 45 48 52 56 60
86 66 64 64 66 57 48 46 44 44 43 43 44 45 46 47 47 46 43 41 39 38 34 33 31 31 30 31 31 32 32 34 37 40 42 46 49 52
66 61 61 62 57 48 46 44 44 44 44 45 46 47 48 47 44 41 38 37 35 33 29 27 26 24 25 25 25 26 27 29 31 34 37 41 44 46
63 61 59 53 48 43 43 42 44 44 45 48 48 47 46 43 41 38 37 35 32 30 28 26 24 22 22 21 20 21 22 24 27 29 32 35 37 39
52 54 49 48 43 43 41 42 44 46 47 48 46 44 43 41 40 38 36 34 31 30 28 26 24 21 21 19 19 18 19 20 21 24 26 29 32 34
46 44 45 43 43 41 41 43 45 47 47 45 43 42 41 41 40 38 37 35 31 30 29 28 28 26 24 21 21 20 19 20 21 20 22 24 26 28
42 42 42 41 43 41 42 45 45 45 44 42 41 41 41 41 40 38 38 36 35 34 35 35 33 32 30 28 26 25 24 23 24 25 24 24 25 26
36 39 39 41 42 41 43 44 44 43 40 40 39 39 40 40 39 39 39 38 39 39 39 39 38 36 34 33 32 32 32 31 29 30 31 30 29 31
35 37 39 42 41 40 44 46 44 40 37 37 36 36 37 37 39 39 40 41 42 43 44 43 42 40 39 38 37 37 38 38 36 36 37 38 38 37
35 38 41 43 41 42 45 46 44 38 35 33 33 36 36 35 37 38 41 43 45 45 47 48 47 47 46 45 44 44 44 45 45 44 44 43 43 46
39 40 43 44 45 47 48 48 43 36 35 32 30 31 31 32 34 37 41 44 46 47 49 51 51 52 53 52 51 50 49 51 52 52 50 50 50 52
44 47 49 51 51 50 51 49 43 40 38 35 32 31 33 35 36 39 42 45 48 50 51 52 54 55 56 58 57 55 57 56 57 60 59 57 57 57
40 43 44 46 47 48 47 44 42 42 40 38 38 39 40 41 42 43 46 48 50 52 53 54 57 59 61 61 61 62 64 65 64 63 64 64 63 63
40 40 40 41 42 43 44 44 45 46 45 44 46 46 46 47 49 50 52 54 56 57 58 61 63 65 66 67 69 70 69 68 69 70 71 71 72 71
40 37 38 39 41 42 44 47 49 50 50 51 52 52 53 53 54 56 58 60 62 63 65 68 70 71 70 73 73 75 74 74 76 77 78 78 79 81
38 39 40 40 39 41 43 47 50 54 56 58 59 60 61 61 61 63 64 66 68 69 72 74 76 75 76 80 82 85 82 82 83 83 83 83 84 85
40 40 39 40 42 45 46 47 49 53 58 61 64 65 67 67 69 70 70 72 74 75 78 81 81 82 84 87 88 88 85 84 83 83 83 82 82 83
45 43 42 43 44 47 49 51 52 54 57 59 64 67 70 71 74 76 77 79 81 82 83 84 83 84 84 85 85 85 87 85 85 84 84 83 82 83
52 50 48 48 48 48 49 50 53 56 59 62 64 66 68 70 73 74 76 77 78 80 82 84 83 84 85 87 87 87 87 87 86 84 84 82 82 81

GFSNE_250_spd_204.txt.gz
Wind_Speed
99 100 99 99 100 103 105 109 110 114 119 123 123 125 116 84 63 57 51 51 54 58 62 67 73 78 82 84 87 88 89 92 94 95 95 96 97 98
95 94 96 99 102 107 111 114 121 124 122 122 125 104 90 64 53 50 48 48 50 52 55 59 62 65 68 70 72 73 74 76 78 79 80 81 83 84
98 98 102 108 110 112 116 122 124 128 126 126 121 101 72 53 50 47 46 47 47 48 50 53 55 55 57 59 60 60 61 62 64 65 66 67 68 69
106 110 116 116 115 118 125 129 125 127 127 128 92 70 55 48 48 46 45 45 46 46 47 46 47 48 48 49 50 50 50 50 53 55 58 59 61 63
120 120 121 119 119 120 124 124 127 107 106 83 75 56 46 47 47 46 45 44 44 43 44 44 45 44 43 44 44 43 43 43 43 44 46 48 51 54
119 118 119 121 118 122 121 115 103 85 73 70 57 46 44 45 46 46 45 45 44 45 44 42 42 41 39 36 35 34 35 36 37 38 39 40 41 45
121 121 115 111 118 110 107 92 81 69 64 55 46 42 43 46 47 46 46 47 47 45 42 40 39 37 33 30 30 28 28 29 30 32 33 35 36 38
121 99 99 113 103 85 81 75 69 59 50 44 41 42 44 47 47 48 48 48 46 43 41 39 37 35 32 29 28 26 25 24 25 27 29 30 32 34
114 97 92 97 92 77 67 62 58 49 43 42 42 44 46 48 49 50 48 46 43 41 40 39 38 35 32 30 28 27 24 23 23 24 26 27 29 31
86 81 74 69 63 56 54 55 48 43 41 44 45 45 47 49 50 48 47 45 43 41 41 39 39 37 35 33 30 28 26 26 25 24 24 25 26 28
58 59 56 51 49 49 49 47 43 43 43 46 46 45 48 50 49 48 46 45 44 43 43 41 40 39 38 37 35 33 31 30 29 28 26 26 26 25
44 45 45 46 48 47 44 43 43 45 45 47 45 45 48 49 48 47 45 45 45 44 44 43 42 42 42 41 40 38 38 37 36 34 32 32 31 30
35 35 38 38 39 40 41 43 44 44 45 47 45 46 47 47 46 44 43 43 45 45 45 45 46 46 46 45 45 44 43 42 42 40 39 38 39 39
32 33 33 35 36 39 41 44 43 43 45 46 45 45 46 45 44 41 38 39 43 45 46 46 47 49 49 50 49 50 49 48 47 46 44 43 43 43
32 32 34 36 39 41 42 44 44 45 46 48 48 47 46 45 42 39 37 39 39 42 45 47 49 51 51 52 53 53 55 56 54 53 51 50 50 51
37 39 40 42 43 45 46 46 47 47 48 50 51 51 48 47 43 40 39 38 38 41 44 47 50 52 54 54 56 58 61 61 62 60 59 57 56 57
37 38 40 43 45 46 48 50 51 53 54 55 54 51 49 48 46 44 42 40 40 40 42 45 48 51 55 58 60 61 63 65 65 64 64 64 63 63
36 37 37 38 40 42 43 45 46 48 49 50 50 49 49 49 49 48 48 47 47 46 46 48 51 54 57 60 61 64 67 67 67 69 69 69 70 70
38 38 37 37 38 41 42 42 43 44 45 48 49 50 50 52 53 53 54 54 54 54 55 56 59 61 62 64 65 71 69 69 72 74 75 77 78 78
40 40 41 39 39 40 42 43 43 44 45 47 50 52 54 55 58 60 61 61 61 61 62 63 66 67 67 69 71 72 78 75 76 79 81 82 83 85
44 43 42 44 44 44 44 45 45 47 48 50 52 53 54 56 60 63 65 66 68 69 70 72 72 73 74 75 79 81 80 84 84 85 87 88 89 90
47 47 48 48 49 51 49 48 48 48 49 51 53 55 57 58 61 63 65 67 70 73 74 76 77 77 80 80 82 84 84 84 86 86 87 87 87 88
53 52 51 51 52 52 55 56 55 55 54 55 55 55 56 58 61 63 66 68 70 71 74 75 76 76 79 80 81 82 84 85 84 87 88 86 87 86